Regional Weather Roundup
Issued by NWS

Home | Current Version | Previous Version | Graphics & Text | Print | Product List | Glossary On
Versions: 1 2 3 4 5 6 7 8 9 10 11 12 13 14 15 16 17 18 19 20 21 22 23 24 25 26 27 28 29 30 31 32 33 34 35 36 37 38 39 40 41 42 43 44 45 46 47 48 49 50
000
ASUS43 KIND 280809
RWRIN

WEATHER ROUNDUP FOR INDIANA
NATIONAL WEATHER SERVICE INDIANAPOLIS IN
400 AM EDT THU AUG 28 2014

NOTE: "FAIR" INDICATES FEW OR NO CLOUDS BELOW 12,000 FEET WITH NO
SIGNIFICANT WEATHER AND/OR OBSTRUCTIONS TO VISIBILITY.

* - STATION DOES NOT REPORT WEATHER SUCH AS PRECIPITATION OR FOG.

+ - STATION NOT QUALITY CONTROLLED BY THE NATIONAL WEATHER SERVICE.
    USE DATA WITH CAUTION...ESPECIALLY DEWPOINT AND RELATIVE
    HUMIDITY OBSERVATIONS.

INZ001>003-010>013-019-020-280900-
NORTHWEST INDIANA

CITY           SKY/WX    TMP DP  RH WIND       PRES   REMARKS
GARY /AIRPORT/ CLOUDY    67  61  80 E6        30.14R
KNOX *+        CLOUDY    59  57  93 CALM      30.12F
LA PORTE +     PTCLDY    61  55  81 NE5       30.14S
MICHIGAN CITY+ PTCLDY    57  57 100 CALM      30.13F
MONTICELLO +   CLEAR     62  61  96 NE3       30.11R
RENSSELAER +   PTCLDY    63  61  94 N5        30.13R
VALPARAISO     MOCLDY    61  54  77 N3        30.13F

$$

LMZ046-743>745-280900-
SOUTHERN LAKE MICHIGAN

STATION/POSITION TIME  TEMP WIND        PRES
                       AIR  DIR/SP/G
                 (UTC) (F)  (DEG/KT/KT) (MB)
MICHIGAN CITY    0800   65   50/  8/ 11   N/A

$$

INZ004-005-014>016-021>024-280900-
NORTH CENTRAL INDIANA

CITY           SKY/WX    TMP DP  RH WIND       PRES   REMARKS
GOSHEN         CLEAR     62  58  86 N3        30.13S
LOGANSPORT +   CLEAR     63  59  88 N6        30.11S
PERU/GRISSOM   CLEAR     63  63 100 NE7       30.10S
ROCHESTER +    CLEAR     63  63 100 CALM      30.12S
SOUTH BEND     PTCLDY    60  56  86 N5        30.15R
WARSAW +       CLEAR     59  59 100 N3        30.12S

$$

INZ006>009-017-018-025>027-280900-
NORTHEAST INDIANA

CITY           SKY/WX    TMP DP  RH WIND       PRES   REMARKS
ANGOLA *+      CLEAR     61  57  88 N3        30.13S
AUBURN +       CLEAR     61  57  88 N5        30.12S
FORT WAYNE     PTCLDY    61  59  93 NW3       30.12R
HUNTINGTON +   CLEAR     61  60  95 N3        30.11S

$$

INZ028-029-035-036-043>045-051>053-280900-
WEST CENTRAL INDIANA

CITY           SKY/WX    TMP DP  RH WIND       PRES   REMARKS
GREENCASTLE +  CLEAR     64  63  94 NE3       30.09S
LAFAYETTE      CLEAR     63  60  90 NE6       30.10R
TERRE HAUTE    CLEAR     68  65  90 CALM      30.07S

$$

INZ030>032-037>040-046>048-054>057-064-065-280900-
CENTRAL INDIANA

CITY           SKY/WX    TMP DP  RH WIND       PRES   REMARKS
CP ATTERBURY + CLEAR     68  63  83 CALM      30.08S
FRANKFORT +    CLEAR    N/A N/A N/A CALM      30.11S
INDIANAPOLIS   CLEAR     68  62  81 NE8       30.07S
-EAGLE CREEK   CLEAR     68  60  75 CALM      30.08S
KOKOMO *+      PTCLDY    63  59  88 NE6       30.11R
MARION +       MOCLDY    62  59  90 NE3       30.11S
MT COMFORT *+  CLEAR     63 N/A N/A CALM      30.09S
SHELBYVILLE    CLEAR     67  63  87 N6        30.06F
ZIONSVILLE +   CLEAR     64  60  86 CALM      30.10S

$$

INZ033-034-041-042-049-050-058-059-280900-
EAST CENTRAL INDIANA

CITY           SKY/WX    TMP DP  RH WIND       PRES   REMARKS
MUNCIE         CLEAR     64  60  87 NE3       30.10S

$$

INZ060-061-067>069-081>083-085>088-280900-
SOUTHWEST INDIANA

CITY           SKY/WX    TMP DP  RH WIND       PRES   REMARKS
EVANSVILLE     PTCLDY    75  71  87 NE3       30.03F
WASHINGTON +   CLEAR     71  71 100 CALM      30.04R FOG

$$

INZ062-063-066-070>080-084-089>092-280900-
SOUTH CENTRAL AND SOUTHEAST INDIANA

CITY           SKY/WX    TMP DP  RH WIND       PRES   REMARKS
BEDFORD +      CLEAR     70  66  88 CALM      30.06S
BLOOMINGTON    CLEAR     71  64  78 NE6       30.07F

$$




USA.gov is the U.S. government's official web portal to all federal, state and local government web resources and services.